OneWeb SL0110

operational
NORAD ID: 47268 Int'l Des: 2020-100 Owner: ONEWEB Country: UK Constellation: oneweb
LEOCIRCULARPOLARONEWEB_TYPE

Über OneWeb SL0110

Beschreibung wird geladen...

Live-Position

3D-Globus wird geladen...

Nächste Überflüge

Höhenverlauf

Altitude vs Time

uPlot chart will show altitude changes over time

Zweizeiliger Elementsatz

1 47268U 20100L 25258.68246759 -.00000065 00000-0 -21555-3 0 9993
2 47268 87.8901 45.1914 0001552 99.4805 260.6499 13.12444798228544
Epoch: 15. Sept. 2025 • Age: 16 hours

Aktueller Status

Höhe 1238.6 km
Geschwindigkeit 7.23 km/s
Subsatellitenpunkt -62.12°S, 109.81°E
Startdatum 18. Dez. 2020
Alter 4.7 years
Typ internet

Technische Details

Klassifizierung Payload
Masse 148.00 kg
Trockenmasse 140.00 kg
Gesamtmasse 148.00 kg
Länge 1.30 m
Durchmesser 1.00 m
Spannweite 5.00 m
Form Trapezoid+2 pan
Hersteller ONEWUS
Bus-Typ ARROW
Phasenstatus In Orbit
Besitzer/Staat ONEWEB/UK

Große Konstellationen

Loading constellations...